Volver al catálogo

FENGYUN 1C DEB

ActivoSSO
NORAD 29781·DEBRIS·🇨🇳 China

Lanzado May 10, 1999 desde Taiyuan Satellite Launch Center

Loading…

Próximos Pases (próximas 24 horas)

TLE

ActualizadoSource: Space-Track

Época: Sep 14, 2026, 22:29 UTC

1 29781U 99025BX  26257.93682832  .00000541  00000-0  34934-3 0  9991
2 29781  98.8265 249.6494 0072622 118.4031 271.4905 14.05742103  5215

Sigue FENGYUN 1C DEB en tiempo real con AllMySat

Download on the App Store